STARLINK-35191, 65594

Orbit data source: Space-Track

STARLINK-35191, 65594 is a payload satellite owned by SpaceX/Seattle (US) in SSO that was launched on Sat, 13 Sep 2025 UTC via an FALCON 9 launch vehicle from the Air Force Eastern Test Range (AFETR). Payload-class satellites include a variety of spacecraft equipped with specific instruments for various scientific and technological missions. These include communications satellites like Starlink; space stations such as the ISS; scientific satellites like the Hubble; Earth observation satellites from companies like Planet Labs, Umbra, and HawkEye 360; GPS; miniature CubeSats for education and research; and military/defense satellites.

Loading next visibility...
Identifier
65594, 2025-207C
Orbit
SSO
Country
Flag of USUS
Related business
Manufacturer
SpaceX/Seattle
Mission
Operational Commercial Communications
Bus & Motor
STARLINK V2MO, Unknown motor
Mass
575 kg wet, ~530 kg dry
Launch date (UTC)
2025-09-13 (9 months ago)
Launch vehicle
FALCON 9
Launch site
Air Force Eastern Test Range (AFETR)
Object type
Payload
Rocket body
Debris
Shape & HBR
Box + 2 Pan, 17.7 m
Radar Cross Section
36.964 m², Large (>1 m²)

Expand to show TLE details & history
Last TLE update: 6 hours ago

TLE from 6 hours ago
0 STARLINK-35191
1 65594U 25207C   26166.93982774  .00006738  00000-0  47038-3 0  9994
2 65594  97.3546 234.5395 0001426 149.5416 210.5895 15.05662466 42871
Epoch: 2026-06-15T22:33Z
TLE epoch observation values (Epoch: 2026-06-15T22:33:21.116Z)
Latitude
0.00001°
Longitude
-8.0175°
Altitude
553.396 km
Speed
7.585 km/s
True Right ascension
15h 38m 09s
True Declination
0° 00' 00"
Sunlit
Object was in full shadow at epoch
Visualization orbit readout
Latitude
Unknown
Longitude
Unknown
Altitude
Unknown
Speed
Unknown
Apparent Right ascension
Unknown
Apparent Declination
Unknown
Sunlit
N/A
Visualization observer readout
Local Sidereal Time
14:45:30
Azimuth
Unknown
Elevation
Unknown
Doppler factor
Unknown
Orbital elements
Apogee altitude
547.443 km
Perigee altitude
545.468 km
Semi-major axis
6,924.593 km
Eccentricity
0.00014
Inclination
97.3546°
RAAN
234.5395°
Arg. of periapsis
149.5416°
True anomaly
210.58119°
Mean anomaly
210.5895°
Eccentric anomaly
210.58534°
Mean motion
3.76662 °/min
Orbital period
95.58 mins
BSTAR
0.00047038
Loading maneuver chart data...
Computing Atmospheric mass density...
Loading historical data...
Loading historical data...
Loading historical data...
Loading historical data...
Loading historical data...
Loading historical data...
Loading historical data...

Documentation

Showing up to 5 results
|